Weather History for Ezeiza, Argentina

Change the Weather History Date:

Saturday, January 5, 2013

  Actual Average Record
Temperature  
Mean Temperature 76 °F -  
Max Temperature 85 °F 86 °F 96 °F (2001)
Min Temperature 67 °F 63 °F 51 °F (1999)
Cooling Degree Days 11    
Growing Degree Days 26 (Base 50)    
Moisture  
Dew Point 68 °F    
Average Humidity 78    
Maximum Humidity 94    
Minimum Humidity 58    
Precipitation  
Precipitation 0.03 in 0.12 in - ()
Sea Level Pressure  
Sea Level Pressure 29.77 in    
Wind  
Wind Speed 8 mph ()    
Max Wind Speed 16 mph    
Max Gust Speed -    
Visibility 5.9 miles    
Events Rain , Thunderstorm    
Averages and records for this station are not official NWS values.
T = Trace of Precipitation, MM = Missing Value Source: Averaged Metar Reports

Daily Weather History Graph

Daily Weather History Graph

Search for Another Location

Airport:

Trip Planner

Search our weather history database for the weather conditions in past years. The results will help you decide how hot, cold, wet, or windy it might be!

Date:

Astronomy

Jan. 05, 2013 Rise Set
Actual Time 5:47 AM ART 8:11 PM ART
Civil Twilight 5:18 AM ART 8:40 PM ART
Nautical Twilight 4:42 AM ART 9:16 PM ART
Astronomical Twilight 4:02 AM ART 9:56 PM ART
Moon 12:19 AM ART (1/5) 1:42 PM ART (1/5)
Length of Visible Light 15h 22m
Length of Day
14h 23m
Last Quarter, 45% of the Moon is Illuminated
Jan 5
Last Quarter
Jan 11
New
Jan 18
First Quarter
Jan 27
Full
Feb 3
Last Quarter

Hourly Weather History & Observations

Time (ART) Temp. Heat Index Dew Point Humidity Pressure Visibility Wind Dir Wind Speed Gust Speed Precip Events Conditions
12:00 AM 69 °F - 67 °F 92% 29.90 in 4 mi ENE 6.9 mph - - Rain , Thunderstorm Thunderstorms and Rain
12:00 AM 69.8 °F - 68.0 °F 94% 29.86 in 4.3 mi East 5.8 mph - N/A Rain , Thunderstorm Light Thunderstorms and Rain
12:25 AM 69.8 °F - 68.0 °F 94% 29.83 in 6.2 mi East 5.8 mph - N/A   Mostly Cloudy
1:00 AM 69.8 °F - 68.0 °F 94% 29.86 in 6.2 mi NE 5.8 mph - N/A   Mostly Cloudy
1:46 AM 69.8 °F - 68.0 °F 94% 29.86 in 5.0 mi NNE 9.2 mph - N/A Rain Light Rain
2:00 AM 71.6 °F - 69.8 °F 94% 29.83 in 5.6 mi NNE 8.1 mph - N/A Rain Light Rain
2:26 AM 71.6 °F - 69.8 °F 94% 29.83 in 6.2 mi NE 8.1 mph - N/A   Mostly Cloudy
3:00 AM 72 °F - 69 °F 87% 29.83 in 6 mi NE 3.5 mph - - Rain Light Rain
3:00 AM 71.6 °F - 68.0 °F 88% 29.83 in 6.2 mi NE 8.1 mph - N/A   Mostly Cloudy
4:00 AM 73.4 °F - 69.8 °F 88% 29.80 in 6.2 mi NE 12.7 mph - N/A   Scattered Clouds
5:00 AM 71.6 °F - 68.0 °F 88% 29.77 in 6.2 mi NE 13.8 mph - N/A   Scattered Clouds
6:00 AM 71.6 °F - 68.0 °F 88% 29.80 in 6.2 mi NE 9.2 mph - N/A   Scattered Clouds
7:00 AM 73.4 °F - 68.0 °F 83% 29.77 in 6.2 mi NNE 12.7 mph - N/A   Mostly Cloudy
8:00 AM 75.2 °F - 69.8 °F 83% 29.77 in - North 11.5 mph - N/A   Clear
9:00 AM 78 °F - 68 °F 64% 29.78 in 6 mi North 11.5 mph - -   Partly Cloudy
9:00 AM 78.8 °F - 68.0 °F 69% 29.77 in - North 11.5 mph - N/A   Clear
10:00 AM 78.8 °F - 69.8 °F 74% 29.74 in - North 12.7 mph - N/A   Clear
11:00 AM 82.4 °F 86.3 °F 69.8 °F 66% 29.71 in - NNW 10.4 mph - N/A   Clear
12:00 PM 82 °F - 71 °F 62% 29.72 in 6 mi NNW 10.4 mph - -   Partly Cloudy
12:00 PM 82.4 °F 87.2 °F 71.6 °F 70% 29.71 in 6.2 mi NNW 10.4 mph - N/A   Mostly Cloudy
2:00 PM 82.4 °F 84.6 °F 66.2 °F 58% 29.74 in 6.2 mi NW 13.8 mph - N/A   Mostly Cloudy
3:00 PM 84.2 °F 87.3 °F 68.0 °F 58% 29.71 in 6.2 mi NW 15.0 mph - N/A   Mostly Cloudy
4:00 PM 84.2 °F 88.4 °F 69.8 °F 62% 29.71 in 6.2 mi WNW 16.1 mph - N/A   Mostly Cloudy
5:00 PM 82.4 °F 86.3 °F 69.8 °F 66% 29.71 in 6.2 mi West 13.8 mph - N/A   Mostly Cloudy
6:00 PM 82.4 °F 85.4 °F 68.0 °F 62% 29.68 in 6.2 mi West 13.8 mph - N/A   Scattered Clouds
7:00 PM 80.6 °F 83.2 °F 68.0 °F 65% 29.68 in 6.2 mi West 13.8 mph - N/A   Scattered Clouds
8:00 PM 77.0 °F - 68.0 °F 74% 29.71 in - West 6.9 mph - N/A   Clear
9:00 PM 73 °F - 67 °F 76% 29.73 in 6 mi West 6.9 mph - -   Clear
9:00 PM 73.4 °F - 66.2 °F 78% 29.71 in - West 6.9 mph - N/A   Clear
10:00 PM 73.4 °F - 66.2 °F 78% 29.74 in - West 6.9 mph - N/A   Clear
11:00 PM 71.6 °F - 68.0 °F 88% 29.77 in - WNW 6.9 mph - N/A   Clear